Istanbul, Turkey

7:58 AM +03 on January 19, 2018 (GMT +0300)
Ataturk

Weather History for LTBA - August, 2014

Change the Weather History Date:

Saturday, August 9, 2014

  Actual Average Record
Temperature  
Mean Temperature 76 °F -  
Max Temperature 82 °F 80 °F 92 °F (2016)
Min Temperature 71 °F 67 °F 68 °F (2008)
Cooling Degree Days 12    
Growing Degree Days 26 (Base 50)    
Moisture  
Dew Point 67 °F    
Average Humidity 71    
Maximum Humidity 83    
Minimum Humidity 49    
Precipitation  
Precipitation 0.04 in - - ()
Sea Level Pressure  
Sea Level Pressure 29.92 in    
Wind  
Wind Speed 8 mph ()    
Max Wind Speed 16 mph    
Max Gust Speed -    
Visibility 6.2 miles    
Events Rain , Thunderstorm    
Averages and records for this station are not official NWS values.
T = Trace of Precipitation, MM = Missing Value Source: Averaged Metar Reports

Daily Weather History Graph

Daily Weather History Graph

Search for Another Location

Airport or City:

Trip Planner

Search our weather history database for the weather conditions in past years. The results will help you decide how hot, cold, wet, or windy it might be!

Date:

Astronomy

Aug. 09, 2014 Rise Set
Actual Time 6:08 AM EEST 8:11 PM EEST
Civil Twilight 5:38 AM EEST 8:41 PM EEST
Nautical Twilight 5:01 AM EEST 9:18 PM EEST
Astronomical Twilight 4:21 AM EEST 9:58 PM EEST
Moon 6:57 PM EEST (8/9) 4:25 AM EEST (8/9)
Length of Visible Light 15h 03m
Length of Day
14h 03m
Waxing Gibbous, 97% of the Moon is Illuminated
Aug 9
Waxing Gibbous
Aug 10
Full
Aug 17
Last Quarter
Aug 25
New
Sep 2
First Quarter

Hourly Weather History & Observations

Time (EEST) Temp. Heat Index Dew Point Humidity Pressure Visibility Wind Dir Wind Speed Gust Speed Precip Events Conditions
12:00 AM 75 °F - 65 °F 64% 29.88 in 6 mi NNW 6.9 mph - -   Scattered Clouds
12:20 AM 73.4 °F - 66.2 °F 78% 29.89 in 6.2 mi NNW 9.2 mph - N/A   Mostly Cloudy
12:50 AM 73.4 °F - 66.2 °F 78% 29.89 in - NNW 8.1 mph - N/A   Clear
1:20 AM 73.4 °F - 66.2 °F 78% 29.89 in - NNW 6.9 mph - N/A   Clear
1:50 AM 73.4 °F - 66.2 °F 78% 29.89 in 6.2 mi NNW 8.1 mph - N/A   Mostly Cloudy
2:20 AM 75.2 °F - 68.0 °F 78% 29.89 in 6.2 mi NNE 8.1 mph - N/A   Mostly Cloudy
2:50 AM 75.2 °F - 68.0 °F 78% 29.89 in 6.2 mi NE 8.1 mph - N/A   Mostly Cloudy
3:00 AM 75 °F - 67 °F 69% 29.88 in 12 mi NE 8.1 mph - -   Scattered Clouds
3:20 AM 75.2 °F - 66.2 °F 73% 29.89 in 6.2 mi Variable 6.9 mph - N/A   Mostly Cloudy
3:50 AM 75.2 °F - 66.2 °F 73% 29.89 in 6.2 mi NNE 5.8 mph - N/A   Mostly Cloudy
4:20 AM 75.2 °F - 66.2 °F 73% 29.89 in 6.2 mi NNE 6.9 mph - N/A   Mostly Cloudy
4:50 AM 73.4 °F - 66.2 °F 78% 29.89 in 6.2 mi NNE 4.6 mph - N/A   Mostly Cloudy
5:20 AM 73.4 °F - 66.2 °F 78% 29.89 in 6.2 mi NNE 4.6 mph - N/A   Mostly Cloudy
5:50 AM 71.6 °F - 66.2 °F 83% 29.89 in 6.2 mi North 5.8 mph - N/A   Scattered Clouds
6:00 AM 72 °F - 67 °F 78% 29.89 in 6 mi North 5.8 mph - -   Scattered Clouds
6:20 AM 71.6 °F - 66.2 °F 83% 29.89 in 6.2 mi Variable 2.3 mph - N/A   Mostly Cloudy
6:50 AM 73.4 °F - 68.0 °F 83% 29.89 in 6.2 mi East 3.5 mph - N/A   Mostly Cloudy
7:20 AM 75.2 °F - 68.0 °F 78% 29.89 in 6.2 mi NNW 5.8 mph - N/A   Scattered Clouds
7:50 AM 75.2 °F - 68.0 °F 78% 29.92 in 6.2 mi NNW 6.9 mph - N/A   Mostly Cloudy
8:20 AM 75.2 °F - 68.0 °F 78% 29.92 in 6.2 mi NNW 6.9 mph - N/A   Mostly Cloudy
8:50 AM 78.8 °F - 68.0 °F 69% 29.92 in 6.2 mi North 8.1 mph - N/A   Mostly Cloudy
9:00 AM 78 °F - 66 °F 59% 29.92 in 6 mi North 8.1 mph - -   Scattered Clouds
9:18 AM 78.8 °F - 68.0 °F 69% 29.92 in 6.2 mi North 10.4 mph - N/A Thunderstorm Thunderstorm
9:20 AM 78.8 °F - 68.0 °F 69% 29.92 in 6.2 mi North 11.5 mph - N/A Thunderstorm Thunderstorm
9:29 AM 75.2 °F - 62.6 °F 65% 29.92 in 5.0 mi North 16.1 mph - N/A Rain , Thunderstorm Light Thunderstorms and Rain
9:50 AM 73.4 °F - 64.4 °F 73% 29.95 in 4.3 mi NNE 11.5 mph - N/A Rain , Thunderstorm Light Thunderstorms and Rain
10:20 AM 73.4 °F - 66.2 °F 78% 29.95 in 5.6 mi ENE 5.8 mph - N/A Rain , Thunderstorm Light Thunderstorms and Rain
10:50 AM 73.4 °F - 66.2 °F 78% 29.95 in 6.2 mi North 6.9 mph - N/A Rain Light Rain Showers
11:20 AM 73.4 °F - 68.0 °F 83% 29.95 in 6.2 mi North 10.4 mph - N/A Rain Light Rain Showers
11:50 AM 73.4 °F - 66.2 °F 78% 29.95 in 6.2 mi NNE 6.9 mph - N/A Rain Light Rain Showers
12:00 PM 74 °F - 67 °F 74% 29.96 in 6 mi NNE 6.9 mph - - Rain Light Rain Showers
12:20 PM 75.2 °F - 66.2 °F 73% 29.95 in 6.2 mi NNE 6.9 mph - N/A Rain Light Rain Showers
12:38 PM 75.2 °F - 66.2 °F 73% 29.95 in 6.2 mi North 6.9 mph - N/A   Mostly Cloudy
12:47 PM 73.4 °F - 66.2 °F 78% 29.95 in 6.2 mi NW 9.2 mph - N/A Rain Light Rain Showers
12:50 PM 75.2 °F - 66.2 °F 73% 29.95 in 6.2 mi NW 9.2 mph - N/A Rain Light Rain Showers
1:20 PM 73.4 °F - 68.0 °F 83% 29.95 in 6.2 mi NW 8.1 mph - N/A Rain Light Rain Showers
1:42 PM 73.4 °F - 68.0 °F 83% 29.92 in 6.2 mi NNW 9.2 mph - N/A   Mostly Cloudy
1:50 PM 75.2 °F - 68.0 °F 78% 29.92 in 6.2 mi NNW 10.4 mph - N/A   Mostly Cloudy
2:20 PM 77.0 °F - 68.0 °F 74% 29.92 in 6.2 mi NNW 11.5 mph - N/A   Mostly Cloudy
2:50 PM 78.8 °F - 68.0 °F 69% 29.92 in 6.2 mi North 12.7 mph - N/A   Mostly Cloudy
3:00 PM 78 °F - 66 °F 58% 29.93 in 6 mi North 12.7 mph - -   Partly Cloudy
3:20 PM 80.6 °F 82.3 °F 64.4 °F 58% 29.92 in 6.2 mi NNE 13.8 mph - N/A   Mostly Cloudy
3:50 PM 80.6 °F 82.7 °F 66.2 °F 61% 29.92 in 6.2 mi North 15.0 mph - N/A   Mostly Cloudy
4:20 PM 80.6 °F 82.7 °F 66.2 °F 61% 29.92 in 6.2 mi North 15.0 mph - N/A   Mostly Cloudy
4:50 PM 80.6 °F 82.7 °F 66.2 °F 61% 29.92 in 6.2 mi North 15.0 mph - N/A   Mostly Cloudy
5:20 PM 80.6 °F 82.3 °F 64.4 °F 58% 29.92 in 6.2 mi North 13.8 mph - N/A   Mostly Cloudy
5:50 PM 82.4 °F 84.6 °F 66.2 °F 58% 29.92 in 6.2 mi North 10.4 mph - N/A   Mostly Cloudy
6:00 PM 82 °F - 66 °F 49% 29.92 in 6 mi North 10.4 mph - -   Scattered Clouds
6:20 PM 82.4 °F 83.4 °F 62.6 °F 51% 29.92 in 6.2 mi NNE 10.4 mph - N/A   Mostly Cloudy
6:50 PM 80.6 °F 82.7 °F 66.2 °F 61% 29.92 in 6.2 mi North 11.5 mph - N/A   Scattered Clouds
7:20 PM 80.6 °F 81.8 °F 62.6 °F 54% 29.92 in - North 10.4 mph - N/A   Clear
7:50 PM 78.8 °F - 66.2 °F 65% 29.92 in - North 9.2 mph - N/A   Clear
8:20 PM 78.8 °F - 66.2 °F 65% 29.92 in - North 8.1 mph - N/A   Clear
8:50 PM 78.8 °F - 66.2 °F 65% 29.92 in - North 9.2 mph - N/A   Clear
9:00 PM 78 °F - 66 °F 59% 29.94 in 6 mi North 9.2 mph - -  
9:20 PM 77.0 °F - 68.0 °F 74% 29.95 in - NNE 6.9 mph - N/A   Clear
9:50 PM 77.0 °F - 68.0 °F 74% 29.95 in - North 5.8 mph - N/A   Clear
10:20 PM 77.0 °F - 68.0 °F 74% 29.95 in - NNE 5.8 mph - N/A   Clear
10:50 PM 77.0 °F - 68.0 °F 74% 29.95 in - North 5.8 mph - N/A   Clear
11:20 PM 77.0 °F - 68.0 °F 74% 29.95 in - NNE 5.8 mph - N/A   Clear
11:50 PM 77.0 °F - 68.0 °F 74% 29.95 in - NE 3.5 mph - N/A   Clear